GOES 1 (SMS-C)

Satellite information

Favourite Embed

Satellite Type and Status

PAYLOADIN ORBIT

Key statistics

Satellite GOES 1 (SMS-C) at a glance.

Uptime

18100

Days in orbit

Revolutions

≈ 1.0

Per day

Orbit

OTHER

Other

Inclination

5.6

Latest

Satellite identification and parameters

Extended collection of information and parameters for GOES 1 (SMS-C).

Object identification

Identified? True

Debris? False

Object name: GOES 1 (SMS-C)

International designator: 1975-100A

Object number (NORAD): 8366

Object ID (CCSDS): 8366

Country: UNITED STATES OF AMERICA (US)

Current information (Y/N): Y

RCS size: LARGE

Orbital parameters

Period: 1436.26 minutes

Inclination: 5.6456 deg

SMA: 42167.933 km

Apoapsis: 35801.66 km

Periapsis: 35777.936 km

RAAN: 282.5235 deg

Eccentricy: 0.0002813

Argument of periapsis: 346.0916 deg

Mean anomaly: 186.1505 deg

Mean motion: 1.00260368 rev/day

Mean motion (dot): -0.00000237 rev/day2

B* drag term: 0.0 1/REarth

Two-line elements (TLE)

Creation date: May 6, 2025, 3:54 a.m.

Reference frame: TEME

Reference center: EARTH

Epoch: May 5, 2025, 8:48 p.m. UTC

TLE line 0: 0 GOES 1 (SMS-C)

TLE line 1: 1 08366U 75100A 25125.86730868 -.00000237 00000-0 00000-0 0 9990

TLE line 2: 2 08366 5.6456 282.5235 0002813 346.0916 186.1505 1.00260368180989

Live tracking on map

Real-time ground track for satellite GOES 1 (SMS-C).

In-orbit conjunctions

A list of the most updated potential collisions computed for object GOES 1 (SMS-C).

Target Orbit TCA Probability of collision Miss distance Type
GORIZONT 32 OTHER 2025-04-14 17:13:39 TBA 1385.0 (m) PAYLOAD
GOES 6 OTHER 2025-02-28 18:24:57 TBA 2077.0 (m) PAYLOAD
GSTAR 1 OTHER 2024-07-21 12:23:31 TBA 4955.0 (m) PAYLOAD

Associated space launch

Geostationary meteorological satellite

GOES 1 (SMS-C) was lifted into orbit during the mission ‘Delta 2914 | GOES 1’, on board a Delta 2914 space rocket.

The launch took place on Oct. 16, 1975, 10:40 p.m. from Space Launch Complex 17B.

For more information about the launch, click the button.

Launch to space Delta 2914 | GOES 1
Delta 2914 | GOES 1

Agency: N/A

Status: Launch Successful

Launch date: Oct. 16, 1975, 10:40 p.m. UTC

Rocket: Delta 2914

Launch pad: Space Launch Complex 17B

Location: Cape Canaveral SFS, FL, USA

...

Latest news about this satellite

There are no fresh news available about this satellite. Check back as we update our databases every day.


Newsletter sign-up

Weekly statistics, charts and insights to help you stay on top of the space industry.